College Station, AR

8:27 PM CDT on August 29, 2016 (GMT -0500)
Adams

Weather History for KLIT - April, 2014

Change the Weather History Date:

Saturday, April 5, 2014

  Actual Average Record
Temperature  
Mean Temperature 49 °F 59 °F  
Max Temperature 55 °F 70 °F 94 °F (1880)
Min Temperature 42 °F 48 °F 28 °F (1920)
Degree Days  
Heating Degree Days 16 7  
Month to date heating degree days 27 38  
Since 1 July heating degree days 3295 2926  
Cooling Degree Days 0 1  
Month to date cooling degree days 14 5  
Year to date cooling degree days 14 21  
Moisture  
Dew Point 33 °F    
Average Humidity 55    
Maximum Humidity 71    
Minimum Humidity 38    
Precipitation  
Precipitation 0.00 in 0.15 in 2.17 in (1918)
Month to date precipitation 0.11 0.78  
Year to date precipitation 10.97 12.67  
Snow  
Snow 0.00 in 0.00 in T in (1920)
Month to date snowfall 0.0 0.0  
Since 1 July snowfall 6.2 3.5  
Snow Depth 0.00 in    
Sea Level Pressure  
Sea Level Pressure 30.16 in    
Wind  
Wind Speed 7 mph (ENE)    
Max Wind Speed 15 mph    
Max Gust Speed 18 mph    
Visibility 10 miles    
Events      
T = Trace of Precipitation, MM = Missing Value Source: NWS Daily Summary

Daily Weather History Graph

Daily Weather History Graph

Search for Another Location

Airport or City:

Trip Planner

Search our weather history database for the weather conditions in past years. The results will help you decide how hot, cold, wet, or windy it might be!

Date:

Astronomy

Apr. 05, 2014 Rise Set
Actual Time 6:50 AM CDT 7:33 PM CDT
Civil Twilight 6:24 AM CDT 7:58 PM CDT
Nautical Twilight 5:54 AM CDT 8:29 PM CDT
Astronomical Twilight 5:24 AM CDT 8:59 PM CDT
Moon 11:06 AM CDT (4/5) 12:35 AM CDT (4/5)
Length of Visible Light 13h 33m
Length of Day
12h 42m
Waxing Crescent, 34% of the Moon is Illuminated
Apr 5
Waxing Crescent
Apr 7
First Quarter
Apr 15
Full
Apr 22
Last Quarter
Apr 29
New

Hourly Weather History & Observations

Time (CDT) Temp. Windchill Dew Point Humidity Pressure Visibility Wind Dir Wind Speed Gust Speed Precip Events Conditions
12:53 AM 46.9 °F - 33.1 °F 59% 30.17 in 10.0 mi NNE 5.8 mph - N/A   Mostly Cloudy
1:53 AM 46.0 °F 43.1 °F 34.0 °F 63% 30.17 in 10.0 mi NNE 5.8 mph - N/A   Mostly Cloudy
2:53 AM 46.9 °F - 30.9 °F 54% 30.18 in 10.0 mi NE 10.4 mph - N/A   Mostly Cloudy
3:53 AM 45.0 °F 41.8 °F 30.9 °F 58% 30.19 in 10.0 mi NNE 5.8 mph - N/A   Mostly Cloudy
4:53 AM 44.1 °F 40.8 °F 30.9 °F 60% 30.19 in 10.0 mi NE 5.8 mph - N/A   Overcast
5:53 AM 43.0 °F 40.3 °F 30.9 °F 62% 30.19 in 10.0 mi NNE 4.6 mph - N/A   Overcast
6:53 AM 42.1 °F 40.2 °F 30.9 °F 65% 30.20 in 10.0 mi NNE 3.5 mph - N/A   Overcast
7:53 AM 45.0 °F 41.2 °F 33.1 °F 63% 30.21 in 10.0 mi NNE 6.9 mph - N/A   Overcast
8:53 AM 46.9 °F - 32.0 °F 56% 30.23 in 10.0 mi ENE 11.5 mph - N/A   Overcast
9:53 AM 50.0 °F - 30.9 °F 48% 30.22 in 10.0 mi East 15.0 mph - N/A   Overcast
10:53 AM 51.1 °F - 32.0 °F 48% 30.24 in 10.0 mi NE 8.1 mph - N/A   Overcast
11:53 AM 51.1 °F - 30.9 °F 46% 30.23 in 10.0 mi ENE 3.5 mph - N/A   Overcast
12:53 PM 53.1 °F - 32.0 °F 45% 30.22 in 10.0 mi East 5.8 mph - N/A   Overcast
1:53 PM 54.0 °F - 32.0 °F 43% 30.18 in 10.0 mi ENE 10.4 mph - N/A   Overcast
2:53 PM 55.0 °F - 30.0 °F 38% 30.15 in 10.0 mi ENE 9.2 mph - N/A   Overcast
3:53 PM 55.0 °F - 30.9 °F 40% 30.13 in 10.0 mi East 9.2 mph - N/A   Overcast
4:53 PM 54.0 °F - 33.1 °F 45% 30.12 in 10.0 mi East 9.2 mph - N/A   Overcast
5:53 PM 53.1 °F - 34.0 °F 48% 30.09 in 10.0 mi East 10.4 mph - N/A   Overcast
6:53 PM 53.1 °F - 35.1 °F 50% 30.10 in 10.0 mi East 6.9 mph - N/A   Overcast
7:53 PM 52.0 °F - 36.0 °F 54% 30.10 in 10.0 mi East 8.1 mph - N/A   Overcast
8:53 PM 51.1 °F - 36.0 °F 56% 30.10 in 10.0 mi East 8.1 mph - N/A   Mostly Cloudy
9:53 PM 51.1 °F - 37.0 °F 59% 30.11 in 10.0 mi East 6.9 mph - N/A   Mostly Cloudy
10:53 PM 48.0 °F - 37.0 °F 66% 30.11 in 10.0 mi Calm Calm - N/A   Mostly Cloudy
11:53 PM 46.9 °F - 37.0 °F 68% 30.10 in 10.0 mi NE 5.8 mph - N/A   Mostly Cloudy